| time (UTC) | temp C | wind direction | speed KPH | gust KPH | rain 1hr cm | rain 24hr cm | rain mn cm | humidity % | barometer mb |
| 20260505014705 | 6 | 305 | 8.0 | 9.7 | 0.00 | 0.03 | 0.00 | 86 | 1009.6 |
| 20260505014204 | 6 | 303 | 8.0 | 9.7 | 0.00 | 0.03 | 0.00 | 86 | 1009.7 |
| 20260505013705 | 6 | 299 | 9.7 | 11.3 | 0.00 | 0.03 | 0.00 | 86 | 1009.7 |
| 20260505012706 | 6 | 289 | 8.0 | 9.7 | 0.00 | 0.03 | 0.00 | 86 | 1009.6 |
| 20260505011704 | 6 | 292 | 8.0 | 9.7 | 0.00 | 0.03 | 0.00 | 86 | 1009.6 |
| 20260505011205 | 6 | 289 | 4.8 | 8.0 | 0.00 | 0.03 | 0.00 | 86 | 1009.8 |
| 20260505010205 | 6 | 289 | 6.4 | 9.7 | 0.00 | 0.03 | 0.00 | 86 | 1009.8 |
| 20260505005204 | 6 | 289 | 9.7 | 12.9 | 0.00 | 0.03 | 0.00 | 86 | 1009.8 |
| 20260505004704 | 6 | 292 | 8.0 | 11.3 | 0.00 | 0.03 | 0.00 | 86 | 1009.7 |
| 20260505004204 | 6 | 303 | 9.7 | 11.3 | 0.00 | 0.03 | 0.00 | 86 | 1009.7 |
| 20260505003705 | 6 | 294 | 9.7 | 11.3 | 0.00 | 0.03 | 0.00 | 86 | 1009.7 |
| 20260505003204 | 6 | 289 | 8.0 | 11.3 | 0.00 | 0.03 | 0.00 | 86 | 1009.7 |
| 20260505001706 | 6 | 306 | 9.7 | 12.9 | 0.00 | 0.03 | 0.00 | 86 | 1009.9 |
| 20260505001206 | 6 | 293 | 8.0 | 11.3 | 0.00 | 0.03 | 0.00 | 86 | 1009.8 |
| 20260505000704 | 6 | 290 | 8.0 | 9.7 | 0.00 | 0.03 | 0.00 | 86 | 1009.8 |
| 20260505000204 | 6 | 291 | 4.8 | 9.7 | 0.00 | 0.03 | 0.00 | 86 | 1009.9 |
| 20260504235707 | 6 | 279 | 4.8 | 8.0 | 0.00 | 0.03 | 0.00 | 86 | 1009.9 |
| 20260504234705 | 6 | 288 | 4.8 | 8.0 | 0.00 | 0.03 | 0.00 | 85 | 1009.9 |
| 20260504232704 | 6 | 294 | 8.0 | 9.7 | 0.00 | 0.05 | 0.00 | 85 | 1009.8 |
| 20260504232206 | 6 | 290 | 6.4 | 9.7 | 0.00 | 0.05 | 0.00 | 85 | 1009.9 |
| 20260504231206 | 7 | 301 | 3.2 | 4.8 | 0.00 | 0.05 | 0.00 | 85 | 1010.0 |
| 20260504230705 | 7 | 301 | 8.0 | 9.7 | 0.00 | 0.05 | 0.00 | 85 | 1010.0 |
| 20260504224206 | 7 | 306 | 0.0 | 0.0 | 0.00 | 0.13 | 0.00 | 83 | 1010.0 |
| 20260504223705 | 7 | 306 | 0.0 | 0.0 | 0.00 | 0.13 | 0.00 | 83 | 1010.0 |
| 20260504222706 | 7 | 307 | 3.2 | 4.8 | 0.00 | 0.15 | 0.00 | 82 | 1009.9 |
| 20260504221704 | 7 | 306 | 4.8 | 8.0 | 0.00 | 0.15 | 0.00 | 81 | 1010.0 |
| 20260504220704 | 8 | 306 | 4.8 | 9.7 | 0.00 | 0.18 | 0.00 | 81 | 1009.9 |
| 20260504220204 | 8 | 302 | 6.4 | 9.7 | 0.00 | 0.23 | 0.00 | 81 | 1009.9 |
| 20260504213706 | 8 | 287 | 9.7 | 12.9 | 0.00 | 0.30 | 0.25 | 79 | 1009.9 |
| 20260504212206 | 8 | 300 | 8.0 | 12.9 | 0.00 | 0.33 | 0.25 | 78 | 1009.9 |
| 20260504211704 | 8 | 302 | 8.0 | 11.3 | 0.00 | 0.36 | 0.25 | 78 | 1009.9 |
| 20260504211204 | 8 | 291 | 6.4 | 11.3 | 0.00 | 0.38 | 0.25 | 77 | 1009.8 |
| 20260504210704 | 8 | 289 | 6.4 | 11.3 | 0.00 | 0.41 | 0.25 | 77 | 1009.8 |
| 20260504210208 | 8 | 283 | 6.4 | 11.3 | 0.00 | 0.41 | 0.25 | 76 | 1009.8 |
| 20260504205207 | 8 | 285 | 4.8 | 9.7 | 0.00 | 0.48 | 0.25 | 75 | 1009.8 |
| 20260504204708 | 8 | 287 | 4.8 | 11.3 | 0.00 | 0.51 | 0.25 | 75 | 1009.8 |
| 20260504203707 | 8 | 300 | 4.8 | 8.0 | 0.00 | 0.53 | 0.25 | 74 | 1009.8 |
| 20260504203208 | 8 | 279 | 3.2 | 8.0 | 0.00 | 0.56 | 0.25 | 74 | 1009.8 |
| 20260504201708 | 9 | 276 | 3.2 | 4.8 | 0.00 | 0.56 | 0.25 | 72 | 1009.8 |
| 20260504200708 | 9 | 268 | 4.8 | 8.0 | 0.00 | 0.56 | 0.25 | 71 | 1009.7 |
| 20260504200207 | 9 | 287 | 4.8 | 8.0 | 0.00 | 0.58 | 0.25 | 71 | 1009.7 |
| 20260504195207 | 10 | 267 | 3.2 | 8.0 | 0.00 | 0.61 | 0.25 | 70 | 1009.7 |
| 20260504194707 | 10 | 268 | 4.8 | 4.8 | 0.00 | 0.61 | 0.25 | 69 | 1009.6 |
| 20260504194206 | 10 | 268 | 4.8 | 8.0 | 0.00 | 0.66 | 0.25 | 69 | 1009.6 |
| 20260504193206 | 10 | 248 | 3.2 | 8.0 | 0.00 | 0.71 | 0.25 | 67 | 1009.6 |
| 20260504190206 | 11 | 262 | 1.6 | 3.2 | 0.00 | 0.74 | 0.25 | 63 | 1009.4 |
| 20260504185707 | 12 | 260 | 3.2 | 4.8 | 0.00 | 0.74 | 0.25 | 63 | 1009.4 |
| 20260504185207 | 12 | 258 | 1.6 | 8.0 | 0.00 | 0.74 | 0.25 | 63 | 1009.4 |
| 20260504184706 | 12 | 254 | 4.8 | 8.0 | 0.00 | 0.74 | 0.25 | 62 | 1009.4 |
| 20260504183207 | 13 | 262 | 3.2 | 4.8 | 0.00 | 0.74 | 0.25 | 60 | 1009.3 |
| 20260504182707 | 13 | 272 | 3.2 | 8.0 | 0.00 | 0.74 | 0.25 | 60 | 1009.3 |
| 20260504181206 | 14 | 274 | 6.4 | 11.3 | 0.00 | 0.74 | 0.25 | 57 | 1009.2 |
| 20260504180207 | 15 | 293 | 9.7 | 14.5 | 0.00 | 0.74 | 0.25 | 55 | 1009.2 |
| 20260504175206 | 15 | 283 | 11.3 | 12.9 | 0.00 | 0.74 | 0.25 | 54 | 1009.2 |
| 20260504174706 | 15 | 279 | 9.7 | 16.1 | 0.00 | 0.74 | 0.25 | 55 | 1009.2 |
| 20260504174206 | 15 | 272 | 9.7 | 14.5 | 0.00 | 0.74 | 0.25 | 54 | 1009.2 |
| 20260504173706 | 15 | 295 | 11.3 | 20.9 | 0.00 | 0.74 | 0.25 | 53 | 1009.2 |
| 20260504172707 | 15 | 281 | 9.7 | 22.5 | 0.00 | 0.74 | 0.25 | 54 | 1009.2 |
| 20260504170706 | 15 | 301 | 11.3 | 22.5 | 0.00 | 0.74 | 0.25 | 53 | 1009.2 |
| 20260504170206 | 15 | 285 | 11.3 | 12.9 | 0.00 | 0.74 | 0.25 | 54 | 1009.2 |
| 20260504150707 | 16 | 293 | 19.3 | 25.7 | 0.00 | 0.74 | 0.25 | 49 | 1009.2 |
| 20260504140707 | 16 | 239 | 19.3 | 35.4 | 0.00 | 0.74 | 0.25 | 50 | 1009.4 |
| 20260504130706 | 15 | 292 | 22.5 | 33.8 | 0.00 | 0.74 | 0.25 | 53 | 1009.2 |
| 20260504120206 | 15 | 261 | 17.7 | 25.7 | 0.00 | 0.74 | 0.25 | 54 | 1009.0 |
| 20260504100206 | 13 | 282 | 14.5 | 29.0 | 0.00 | 0.84 | 0.25 | 65 | 1008.3 |
| 20260504080706 | 10 | 299 | 19.3 | 27.4 | 0.00 | 0.84 | 0.25 | 89 | 1007.6 |
| 20260504060205 | 11 | 286 | 19.3 | 27.4 | 0.00 | 0.84 | 0.25 | 91 | 1005.5 |
| 20260504050707 | 12 | 286 | 19.3 | 25.7 | 0.03 | 0.84 | 0.25 | 91 | 1004.6 |
| 20260504045705 | 12 | 277 | 14.5 | 25.7 | 0.00 | 0.81 | 0.23 | 91 | 1004.4 |
| 20260504045207 | 12 | 288 | 8.0 | 16.1 | 0.00 | 0.81 | 0.23 | 91 | 1004.4 |
| 20260504044706 | 12 | 261 | 9.7 | 22.5 | 0.00 | 0.81 | 0.23 | 91 | 1004.4 |
| 20260504042707 | 12 | 258 | 8.0 | 25.7 | 0.00 | 0.81 | 0.23 | 91 | 1004.2 |
| 20260504042206 | 12 | 246 | 14.5 | 24.1 | 0.00 | 0.81 | 0.23 | 91 | 1004.1 |
| 20260504041207 | 12 | 246 | 9.7 | 24.1 | 0.00 | 0.81 | 0.23 | 91 | 1004.1 |
| 20260504040706 | 12 | 244 | 11.3 | 24.1 | 0.00 | 0.81 | 0.23 | 91 | 1004.1 |
| 20260504040205 | 12 | 286 | 9.7 | 22.5 | 0.00 | 0.81 | 0.23 | 91 | 1004.1 |
| 20260504035706 | 12 | 247 | 9.7 | 20.9 | 0.00 | 0.81 | 0.23 | 91 | 1004.1 |
| 20260504035205 | 12 | 208 | 11.3 | 20.9 | 0.00 | 0.81 | 0.23 | 91 | 1004.1 |
| 20260504034206 | 12 | 231 | 9.7 | 22.5 | 0.00 | 0.81 | 0.23 | 91 | 1004.2 |
| 20260504033705 | 12 | 229 | 8.0 | 11.3 | 0.00 | 0.81 | 0.23 | 91 | 1004.2 |
| 20260504033205 | 12 | 259 | 8.0 | 12.9 | 0.00 | 0.81 | 0.23 | 91 | 1004.2 |
| 20260504032706 | 12 | 231 | 6.4 | 12.9 | 0.00 | 0.81 | 0.23 | 91 | 1004.2 |
| 20260504030705 | 12 | 267 | 6.4 | 16.1 | 0.00 | 0.81 | 0.23 | 91 | 1004.2 |
| 20260504025205 | 12 | 257 | 11.3 | 24.1 | 0.00 | 0.81 | 0.23 | 91 | 1004.3 |
| 20260504024705 | 12 | 239 | 11.3 | 20.9 | 0.00 | 0.81 | 0.23 | 91 | 1004.3 |
| 20260504024205 | 12 | 247 | 12.9 | 24.1 | 0.00 | 0.81 | 0.23 | 91 | 1004.3 |
| 20260504023707 | 12 | 268 | 14.5 | 24.1 | 0.00 | 0.81 | 0.23 | 91 | 1004.4 |
| 20260504023205 | 12 | 290 | 9.7 | 12.9 | 0.00 | 0.81 | 0.23 | 91 | 1004.4 |
| 20260504022705 | 12 | 258 | 16.1 | 25.7 | 0.00 | 0.81 | 0.23 | 91 | 1004.4 |
| 20260504022207 | 12 | 247 | 9.7 | 22.5 | 0.00 | 0.81 | 0.23 | 91 | 1004.3 |
| 20260504021707 | 12 | 251 | 12.9 | 27.4 | 0.00 | 0.81 | 0.23 | 91 | 1004.3 |
| 20260504020207 | 12 | 261 | 11.3 | 22.5 | 0.00 | 0.81 | 0.23 | 91 | 1004.4 |
| 20260504015705 | 12 | 261 | 11.3 | 25.7 | 0.00 | 0.81 | 0.23 | 91 | 1004.3 |